sat.trackr.live / text

‹ back to catalog

GEESAT-1 07

NORAD 52791 · 2022-058G

PAYLOAD ACTIVE UNKNOWN

§ Identity

Operator
Country
PRC
Launch date
2022-06-02
Launch site
XICLF
Launch vehicle
Mass (kg)
RCS (m²)

External: N2YO · Heavens-Above · Gunter

§ Orbital elements

Epoch: 2026-09-20T17:38:41.047584Z

Period
97.19 min
Inclination
49.9878°
Eccentricity
0.0012623
Mean motion
14.81612197 rev/d
Perigee alt
615.4 km
Apogee alt
633.1 km
Semi-major
7,002.4 km
B*
1.3922e-4
RAAN
120.1016°
Arg perigee
100.3774°
Mean anomaly
259.8586°
Rev number
23,409

§ Raw data

GEESAT-1 071 52791U 22058G   26263.73519731  .00000882  00000+0  13922-3 0  99932 52791  49.9878 120.1016 0012623 100.3774 259.8586 14.81612197234099

JSON: /api/v1/satellites/52791 · /tle

For live sub-satellite position, see the globe view (requires WebGL).

§ Visibility from observer

Set your observer location to see the next 7 days of passes ≥ 10°. The values pass through the URL so the page stays shareable.

No JS? Fill the form by hand. The geolocation button needs JavaScript.